Temp
-6 -5 -4 -3 -3 -1 -1 0 1 5 7 13 13 13 13 14 14 15 15 16 17 16 15 15 15 15 15 15 14 14 14 13 13 12 12 11 11 11
-6 -6 -5 -4 -3 -2 -1 -1 -0 1 4 6 9 7 13 14 13 15 15 16 16 16 16 15 15 15 15 15 14 14 14 13 13 12 12 12 11 10
-7 -6 -5 -4 -3 -3 -2 -1 -0 -0 1 2 5 5 7 13 13 14 15 15 16 16 16 16 15 15 15 14 14 14 14 14 13 13 12 12 12 11
-7 -6 -6 -5 -3 -3 -3 -2 -1 -0 0 2 4 5 6 12 13 13 13 13 13 15 15 16 16 16 15 14 14 13 14 14 14 13 13 13 12 12
-7 -6 -6 -6 -4 -3 -3 -2 -1 -0 -0 0 1 3 4 7 12 12 13 13 13 14 14 15 16 15 15 14 14 14 14 14 13 13 13 13 13 13
-7 -7 -6 -6 -5 -4 -3 -3 -2 -1 -0 0 1 2 4 5 8 12 12 12 12 13 13 13 14 15 14 14 13 14 14 14 13 13 13 13 13 13
-7 -7 -6 -6 -5 -4 -3 -2 -2 -1 -1 0 1 1 3 5 6 11 12 11 11 12 12 12 13 14 14 13 13 13 14 14 13 13 13 13 13 13
-6 -6 -6 -5 -4 -3 -2 -2 -2 -1 -1 -0 1 2 2 3 4 5 10 11 11 11 11 11 12 12 12 12 13 14 14 14 13 13 13 13 13 13
-5 -5 -5 -5 -4 -4 -3 -2 -1 -1 -0 0 1 1 2 2 3 4 5 9 12 11 11 11 11 11 11 12 14 13 14 13 13 13 13 13 13 12
-5 -5 -5 -5 -4 -4 -4 -3 -3 -2 -2 -1 -0 0 1 1 2 3 4 4 6 10 11 12 10 11 11 11 13 13 13 13 13 13 13 13 13 13
-5 -5 -5 -5 -4 -3 -3 -3 -2 -2 -1 -1 -1 -0 0 1 1 1 2 4 6 9 10 12 10 11 11 10 11 13 14 13 13 13 13 13 13 12
-5 -5 -4 -3 -3 -3 -3 -3 -2 -2 -1 -1 -0 -0 0 1 1 1 1 3 5 5 10 11 9 10 8 9 10 11 11 13 13 13 13 13 12 12
-4 -4 -4 -3 -2 -1 -1 -2 -1 -1 -1 -0 0 0 1 1 1 1 2 2 4 5 8 10 9 9 10 6 8 9 10 10 11 12 12 12 12 12
-3 -3 -3 -2 -1 -1 -1 -0 -0 -0 -0 -0 0 0 1 1 1 1 2 3 4 5 6 7 9 10 9 3 5 7 9 9 10 11 11 11 11 11
-2 -2 -2 -1 -1 -1 -1 -0 0 -0 -0 -0 0 0 1 1 1 1 2 3 4 5 6 7 8 9 9 8 3 5 6 8 9 10 10 10 10 10
-3 -3 -3 -1 -1 -1 -1 -1 -1 -1 -1 -1 -0 0 0 0 0 1 1 2 3 4 5 6 7 8 8 9 10 4 7 6 7 8 9 8 8 9
-5 -5 -5 -5 -4 -4 -3 -3 -2 -1 -1 -1 -1 -0 0 -0 -0 0 1 1 2 4 5 6 7 7 9 8 6 6 4 5 5 6 6 4 6 7
-6 -6 -6 -6 -5 -5 -5 -4 -4 -4 -3 -3 -2 -1 -1 -0 -0 -0 0 1 2 3 5 5 6 5 4 5 5 5 4 4 3 4 4 3 1 4
-7 -7 -6 -6 -6 -6 -6 -5 -5 -4 -4 -4 -3 -2 -2 -1 -0 -0 0 1 2 3 5 3 4 6 5 6 3 5 5 3 2 1 3 4 2 2
-8 -7 -7 -7 -7 -7 -6 -6 -6 -5 -5 -5 -4 -4 -3 -2 -1 -1 0 1 2 3 4 3 4 6 6 6 1 2 5 3 3 1 0 1 1 0
-8 -8 -8 -8 -7 -7 -7 -6 -6 -5 -5 -4 -4 -4 -4 -2 -2 -1 -0 1 2 3 4 4 5 7 7 5 1 -1 1 3 4 2 -1 -1 -3 -2
-9 -9 -9 -8 -8 -7 -7 -7 -6 -5 -5 -4 -4 -4 -4 -3 -2 -1 -0 0 2 3 4 5 4 5 4 6 3 -1 -2 -0 1 1 0 1 0 -4
-10 -10 -9 -9 -8 -8 -7 -7 -6 -5 -5 -4 -4 -4 -4 -3 -2 -1 -0 0 2 3 4 3 2 3 5 5 0 -2 -4 -4 -4 -3 -3 0 1 2
Height
754 753 750 746 743 739 738 737 740 725 713 691 693 697 703 709 714 720 728 734 739 746 753 762 770 776 783 790 795 800 805 811 816 818 823 828 833 838
747 746 744 740 737 736 735 732 736 732 723 709 693 700 698 702 705 710 718 725 731 737 744 752 760 768 775 781 787 794 797 804 808 812 817 822 828 832
739 739 737 735 734 732 732 732 726 728 717 710 700 696 694 692 696 701 707 714 719 727 735 743 750 759 767 773 779 785 792 797 801 805 810 816 822 826
733 733 731 731 728 727 726 726 723 724 721 705 699 696 693 684 687 691 697 705 710 716 725 733 741 750 758 765 763 773 783 792 794 799 804 810 815 820
725 725 724 725 723 723 722 719 716 712 712 707 702 705 694 684 679 683 688 696 704 706 717 723 731 741 748 756 758 768 775 783 788 792 798 803 810 814
717 717 717 717 717 717 717 716 715 713 709 707 702 697 695 684 677 674 682 687 695 701 708 715 723 730 739 748 755 760 768 773 779 786 792 796 802 808
708 708 709 710 710 711 711 710 709 707 707 704 699 694 688 683 678 674 675 680 687 694 700 706 714 719 729 739 744 750 757 764 771 778 785 791 795 801
700 701 701 702 702 701 702 702 703 701 701 701 695 691 681 683 680 680 672 673 678 682 690 696 705 711 717 724 733 742 748 754 762 768 776 783 789 794
692 693 693 694 694 694 694 694 694 693 692 694 688 683 681 687 679 676 676 668 668 671 682 689 695 705 712 717 724 731 739 746 753 760 767 774 781 786
683 684 684 685 686 687 687 686 685 685 685 683 681 678 680 680 678 677 676 673 671 664 666 678 686 692 702 708 715 722 731 738 745 751 758 765 773 778
675 675 675 675 676 678 678 677 677 675 675 675 676 675 674 671 674 673 674 676 671 663 659 666 678 687 694 700 706 714 723 731 737 743 750 758 764 769
668 666 666 666 666 668 668 669 668 666 667 667 668 668 665 666 664 668 670 673 670 668 655 662 671 678 686 690 698 706 714 721 728 735 742 750 756 762
659 657 656 656 657 658 658 658 657 659 658 658 657 657 657 657 658 661 663 664 667 665 659 655 657 668 673 683 689 696 701 711 719 726 735 742 747 752
648 647 646 647 649 649 649 650 650 651 649 649 648 648 649 651 652 652 656 656 656 659 658 656 650 654 662 673 680 686 693 701 708 715 722 730 737 743
642 640 639 638 639 640 640 642 643 643 643 642 641 641 642 644 645 646 648 650 649 650 650 650 650 647 650 654 669 675 684 690 696 703 710 717 722 730
639 635 632 628 629 630 632 633 634 635 635 634 632 633 636 637 638 641 643 641 642 641 638 641 645 647 643 645 655 664 670 676 685 692 700 708 713 720
638 634 631 629 627 626 626 627 626 625 624 624 624 624 626 628 628 630 631 635 633 628 626 631 636 641 639 642 650 654 661 668 675 680 688 698 705 710
640 637 634 631 629 627 625 623 621 620 619 619 618 616 615 617 618 621 624 625 622 620 618 623 629 636 637 640 645 644 652 658 665 673 681 690 696 704
642 638 635 632 628 626 623 620 617 614 613 611 610 608 607 607 608 609 610 612 610 610 608 614 621 628 630 631 639 641 641 649 659 671 672 680 687 698
643 640 635 631 627 623 619 615 611 607 605 603 601 600 598 598 598 599 600 600 600 601 603 603 611 615 616 621 633 636 636 641 647 662 674 682 686 697
643 639 634 629 624 619 613 608 604 599 596 593 591 589 588 588 586 587 589 590 593 594 594 592 591 598 608 615 624 629 638 643 644 652 664 672 682 693
644 638 632 626 621 615 609 603 597 591 586 582 579 577 575 574 572 572 575 578 579 582 581 583 587 597 596 602 612 621 636 645 651 652 657 661 668 683
643 636 630 623 617 610 604 597 590 583 577 571 566 562 561 558 557 558 560 564 567 571 574 577 581 586 586 597 602 615 627 639 646 653 661 662 667 670
Wind_Speed
21 20 20 18 21 16 13 10 9 4 4 10 13 35 38 38 43 46 47 48 47 51 53 53 49 46 46 45 41 37 34 32 30 31 30 28 26 24
21 20 20 22 19 15 17 15 16 12 6 8 7 25 34 37 41 50 51 49 48 51 54 55 54 50 50 49 46 41 39 35 34 34 32 31 28 26
22 22 20 16 19 17 16 16 14 16 8 29 22 34 33 41 38 44 49 47 46 49 54 55 55 54 50 50 51 44 42 39 37 36 33 31 29 27
22 21 20 18 19 18 18 19 17 18 20 12 24 27 36 38 38 39 39 39 39 42 51 54 55 54 50 44 53 48 44 43 40 37 37 34 31 29
23 22 20 19 19 18 18 19 16 15 16 16 18 25 28 26 33 37 37 35 38 39 46 53 51 54 51 45 43 46 44 45 43 41 39 37 35 33
24 23 22 22 22 19 18 18 18 17 16 18 18 22 19 23 22 29 30 30 31 35 39 45 50 55 45 44 43 42 47 45 46 44 42 39 37 37
26 25 24 23 23 23 22 20 18 16 16 16 18 18 17 17 15 15 28 27 32 35 36 38 43 51 47 50 45 44 44 48 48 46 45 41 39 39
24 23 23 23 23 24 25 25 25 23 20 19 17 16 19 17 18 20 14 17 7 33 34 30 35 35 48 50 51 49 48 49 52 49 46 43 41 39
24 23 23 22 22 22 22 24 25 26 27 26 23 22 20 19 16 20 21 13 22 24 34 26 34 34 38 49 53 51 49 50 51 50 47 45 41 39
27 27 27 25 25 24 24 25 27 26 26 26 26 25 24 20 19 18 22 22 29 24 40 15 29 32 33 38 47 48 47 47 47 49 47 44 41 37
26 27 27 27 26 25 25 24 25 26 24 25 27 30 29 28 23 18 21 16 9 12 35 23 19 27 31 31 40 47 47 46 45 45 45 43 39 34
24 27 27 28 26 25 26 24 23 24 22 23 23 24 24 28 23 26 23 19 11 9 18 24 22 23 7 22 36 44 43 44 44 45 43 41 38 34
23 24 25 24 25 25 26 26 27 26 25 25 23 22 22 21 22 22 27 27 25 18 23 25 21 24 15 10 22 37 43 44 45 46 43 41 39 38
24 26 27 25 24 24 25 25 23 25 23 20 20 21 23 22 21 20 24 29 32 36 37 23 16 31 23 8 8 31 37 40 46 48 47 42 39 38
14 18 23 25 26 26 26 26 23 21 20 20 22 22 23 23 22 24 25 25 30 34 33 30 28 35 37 21 14 19 26 36 43 45 46 46 44 41
17 15 15 18 23 23 22 23 23 23 23 23 24 25 26 25 24 23 24 22 24 29 33 34 32 34 28 34 34 21 30 22 41 44 44 43 43 42
14 14 14 15 12 9 9 11 14 18 22 24 25 25 26 25 25 24 24 23 22 19 20 27 31 41 35 37 21 30 34 29 38 43 41 34 41 42
15 13 13 13 11 11 12 13 15 17 18 19 21 21 23 26 24 22 24 24 21 22 21 25 27 21 9 12 21 29 29 26 37 42 34 29 28 35
15 15 14 14 15 15 14 15 16 17 18 19 21 23 25 26 25 24 22 22 24 25 22 30 30 24 9 10 6 28 29 33 34 28 34 27 26 39
18 17 17 18 18 17 18 18 18 19 18 19 21 24 26 27 26 25 25 23 23 25 25 27 31 31 16 15 7 12 32 36 39 31 25 21 21 29
21 20 20 20 21 21 21 22 22 22 22 21 23 25 27 27 29 30 30 33 30 27 17 25 40 48 34 28 11 8 18 29 37 39 38 26 19 20
22 22 24 24 23 23 25 25 25 24 24 24 24 25 27 30 31 32 32 29 31 31 30 27 29 35 29 24 8 17 21 20 22 27 24 24 26 9
25 25 26 26 26 26 27 26 25 25 26 27 27 26 27 29 32 34 33 34 32 32 33 21 29 31 27 18 27 23 27 31 28 28 18 15 17 12
Wind_Direction
275 271 272 276 283 280 290 280 280 310 308 245 183 212 212 211 213 213 213 215 219 219 216 213 210 208 207 208 206 204 205 207 205 205 208 210 213 214
271 269 270 276 273 289 282 284 270 274 273 291 293 321 221 213 210 214 215 218 218 219 218 217 215 212 211 210 207 206 204 206 207 208 210 213 214 215
267 265 267 271 275 275 275 264 268 274 290 286 296 299 311 208 207 208 214 217 221 221 220 220 218 215 215 213 209 207 206 207 209 211 211 214 216 216
267 264 265 269 268 271 274 275 260 250 250 282 306 307 303 210 206 201 206 214 215 225 220 220 221 215 217 221 205 206 208 211 210 212 214 215 217 218
264 261 262 263 265 265 266 270 286 284 283 289 292 291 305 310 203 200 200 206 211 221 220 220 221 218 220 222 209 210 212 214 215 213 216 216 219 221
260 260 259 255 257 259 263 265 270 270 272 273 279 290 293 299 307 195 202 202 205 209 218 220 221 220 225 222 213 215 216 218 217 217 219 218 222 226
258 257 257 254 255 257 255 257 258 263 271 270 275 281 284 306 319 225 199 198 203 204 208 218 213 215 215 225 227 223 222 222 220 219 221 223 226 230
256 258 257 257 258 260 259 258 256 257 255 261 266 263 280 288 303 303 258 184 185 202 201 206 209 206 211 221 222 226 223 221 221 219 221 223 227 232
258 257 256 254 259 255 258 261 260 256 256 258 265 263 273 270 301 310 302 282 202 191 194 201 203 206 209 216 222 221 221 219 219 220 219 223 228 232
257 253 253 254 251 254 255 258 262 258 255 260 264 270 267 275 271 289 305 302 302 213 185 196 195 206 206 212 219 218 219 219 219 220 220 223 228 229
257 255 253 253 255 257 257 253 254 258 257 257 257 261 265 268 270 288 280 294 296 232 184 180 192 197 199 206 214 219 218 218 219 218 219 221 223 227
257 257 258 255 255 253 247 247 252 251 254 257 258 261 261 262 260 252 258 262 274 291 198 179 163 175 167 195 206 214 217 219 218 217 217 220 223 224
252 257 256 258 258 254 251 243 241 250 252 255 255 254 258 260 250 244 239 235 246 249 270 203 171 180 182 153 185 208 210 213 214 216 219 221 221 222
244 247 250 255 258 256 255 256 258 256 255 253 250 246 251 251 251 251 243 241 241 242 255 275 211 185 178 143 167 192 202 208 210 211 213 215 218 221
311 279 263 257 257 257 256 256 259 254 253 252 254 256 253 259 261 255 253 251 249 246 246 249 262 197 189 173 164 181 178 197 207 208 208 209 207 211
332 323 333 276 254 248 249 249 250 249 250 254 254 253 255 254 251 252 244 246 249 246 246 248 257 226 188 195 192 171 190 177 195 203 206 205 207 211
354 0 2 2 354 336 310 290 273 253 245 246 244 249 252 250 247 247 244 244 248 243 239 238 237 231 210 204 185 183 180 185 188 189 190 190 200 206
3 355 347 343 333 324 311 292 285 277 267 260 257 254 247 246 243 240 238 234 235 243 223 215 210 191 171 184 207 177 178 177 181 186 176 177 180 196
359 347 337 331 322 312 300 289 280 272 270 263 258 253 249 248 244 238 234 232 234 233 228 200 192 200 189 193 183 190 174 174 167 172 177 187 177 188
349 338 331 326 321 313 307 298 289 286 275 267 258 253 248 244 241 236 231 227 231 233 234 193 195 196 198 190 163 187 187 171 168 167 165 157 164 181
335 331 328 323 319 314 311 304 295 289 283 271 258 250 248 238 240 236 231 227 225 226 223 204 201 202 201 179 129 116 166 184 183 170 168 150 140 151
330 327 326 323 320 316 313 307 302 294 289 280 269 257 247 237 234 234 227 226 221 222 223 213 196 193 177 193 159 134 124 145 166 167 164 173 167 167
329 327 324 323 322 319 317 310 302 295 290 280 274 262 249 239 234 231 226 223 221 217 216 186 174 180 179 184 150 145 134 128 120 113 102 172 172 175